Tracking 28336 objects as of 4-Dec-2023
HD Live streaming from Space Station
objects crossing your sky now

FENGYUN 1C DEB

Track FENGYUN 1C DEB now!
10-day predictions


NORAD ID: 30828
Int'l Code: 1999-025AVN
Perigee: 521.2 km
Apogee: 925.5 km
Inclination: 98.4 °
Period: 99.1 minutes
Semi major axis: 7094 km
RCS: 0.0024 m2 (small)
Launch date: May 10, 1999
Source: People's Republic of China (PRC)
Launch site: Taiyaun Space Center, China (TSC)

Note: This is SATELLITE DEBRIS
Your satellite tracking list
Your tracking list is empty




NASA's NSSDC Master Catalog

Two Line Element Set (TLE):
1 30828U 99025AVN 23336.19551932  .00029824  00000-0  42202-2 0  9995
2 30828  98.4001  57.4660 0284921 340.7436  41.0261 14.52887113878003
Source of the keplerian elements: AFSPC